Location: Newark
(5.8900°S, 42.6378°W)
Time: 01:03:43
(UTC+00:00)

Vanguard 1 Rocket - Pass Details

Date: 23 October 2019
Orbit: 651 x 4226 km, 34.3° (Epoch: 18 November)

Event Time Altitude Azimuth Distance (km) Brightness Sun altitude
Rises 06:51:58 0° 214° (SW) 2,971 - -23.8°
Exits shadow 06:53:53 - 204° (SSW) 2,271 9.4 -23.3°
Reaches altitude 10° 06:54:31 10° 199° (SSW) 2,061 9.2 -23.2°
Maximum altitude 06:58:11 24° 143° (SE) 1,465 9.0 -22.3°
Drops below altitude 10° 07:02:41 10° 89° (E) 2,574 10.8 -21.2°
Sets 07:06:19 0° 76° (ENE) 3,933 11.7 -20.3°
